GFSMW_700_spd_060.txt.gz
Wind_Speed
8 10 12 14 9 17 24 20 21 24 22 21 24 27 26 43 43 42 44 44 39 38 34 29 29 25 22 19 22 17 14 12 13 12 10 10 13 13 15 17 18 20 22
5 6 7 9 9 2 19 26 26 24 26 21 19 28 30 44 47 46 48 47 48 45 40 35 35 27 21 18 18 21 18 17 17 17 16 16 17 16 20 20 21 23 24
4 3 5 6 7 6 4 14 22 25 24 28 23 21 29 27 36 50 53 52 42 33 34 36 25 28 27 28 24 21 20 21 22 23 23 22 24 21 22 25 27 25 27
4 2 2 2 3 4 5 6 6 21 28 28 22 24 24 29 32 26 42 44 42 36 34 30 29 31 32 28 28 25 26 27 26 27 27 27 27 29 27 29 30 27 26
4 5 4 3 1 3 4 5 8 7 9 17 23 23 24 26 40 26 32 32 27 34 34 28 33 35 33 30 29 29 29 29 30 31 30 32 31 31 28 32 28 30 30
7 7 8 6 4 4 4 5 7 9 11 13 12 11 11 15 20 21 25 28 28 31 32 33 35 35 33 32 30 30 31 31 32 31 35 39 36 24 25 31 32 28 29
14 10 9 7 6 5 5 6 6 9 11 13 16 17 17 16 17 18 20 23 28 29 31 33 33 31 33 33 31 35 33 31 36 23 22 23 23 27 31 31 35 37 34
14 15 12 10 8 8 7 7 6 8 9 11 12 14 16 17 18 20 21 22 23 23 26 29 32 34 34 33 31 30 25 19 22 23 27 31 31 33 28 35 35 36 36
19 15 14 10 9 8 8 9 9 10 11 11 13 14 13 14 16 17 16 17 21 23 27 30 33 34 34 33 34 29 26 25 25 27 30 33 33 35 32 37 35 35 41
16 19 17 16 13 11 10 11 13 15 16 15 16 16 16 17 18 19 22 20 19 22 28 31 33 36 32 32 32 32 30 31 28 30 32 33 34 33 38 34 37 44 44
8 16 19 18 18 19 16 13 14 15 18 21 21 19 20 21 23 25 24 25 27 28 29 33 34 36 35 35 37 36 32 33 33 32 34 37 36 38 37 37 42 39 45
7 7 11 11 12 15 18 21 22 19 18 18 21 25 26 29 35 31 30 30 31 29 32 35 39 35 37 42 37 38 34 33 33 36 39 40 37 38 41 46 39 41 48
13 12 14 14 14 12 13 16 17 17 19 20 20 25 29 37 32 19 26 29 33 35 46 38 34 39 39 36 36 35 31 33 38 37 40 38 40 45 45 42 41 50 51
16 18 18 14 13 11 10 6 5 5 8 13 17 20 26 29 40 36 28 26 27 27 33 22 25 32 39 39 37 36 32 33 36 39 40 41 42 46 44 47 42 50 46
21 21 23 20 17 17 15 14 9 11 11 11 13 19 21 26 29 34 32 30 27 26 30 33 31 27 29 33 37 34 33 35 37 39 40 40 40 50 39 44 50 50 47
27 28 25 24 24 19 20 21 17 13 14 16 18 14 20 23 26 29 29 32 30 27 29 28 29 28 29 30 32 33 35 38 40 38 40 41 42 44 47 53 49 47 45
28 28 30 31 26 26 23 19 19 18 18 21 23 23 20 22 23 25 29 31 33 31 29 31 30 30 32 33 35 36 39 41 41 39 40 43 47 47 51 48 49 42 51
26 28 27 29 25 22 25 23 24 25 23 24 26 27 25 23 22 24 27 30 30 30 32 33 33 32 34 38 37 39 41 43 37 42 47 46 47 46 47 48 46 47 50
23 26 27 27 23 23 25 26 25 27 27 28 28 27 26 24 26 24 27 28 29 32 33 35 35 36 39 39 39 42 38 39 43 44 45 45 46 47 48 47 49 49 46
24 18 22 29 27 28 29 29 27 27 29 31 31 28 26 28 29 28 28 29 32 35 37 38 39 39 38 42 43 39 39 40 41 43 44 46 48 49 49 49 46 44 43
27 26 25 27 30 29 31 28 27 30 33 33 30 27 29 29 31 32 32 32 33 35 38 40 40 42 45 42 39 40 40 41 42 45 47 48 49 50 49 47 44 44 42
27 24 27 24 28 30 30 30 31 32 31 30 29 28 31 31 32 34 36 36 35 34 35 39 40 40 38 38 39 39 40 41 44 46 47 48 48 48 47 46 48 44 48
27 23 27 23 24 21 22 23 24 25 25 27 28 30 30 30 30 30 33 32 30 34 35 37 37 37 38 39 40 42 43 45 46 46 47 48 47 46 48 51 52 52 54
36 28 24 22 19 20 21 23 25 24 24 25 26 27 29 29 30 29 30 31 36 38 39 38 39 39 40 41 42 45 46 47 47 46 46 47 50 53 55 55 52 52 55
25 26 25 21 27 29 21 23 24 24 24 24 25 26 27 28 29 28 30 34 37 38 38 39 40 41 42 43 45 47 47 47 48 51 51 52 52 51 49 50 52 52 48
17 21 24 21 23 20 23 21 21 22 22 24 24 24 25 24 25 28 32 34 35 36 37 39 41 42 44 43 43 45 48 50 49 46 44 46 47 47 47 49 49 46 46

GFSMW_700_spd_063.txt.gz
Wind_Speed
3 5 10 13 14 19 20 21 16 19 21 13 22 18 32 35 37 34 37 42 42 36 37 35 29 26 21 20 17 16 15 13 13 13 13 13 12 10 10 11 13 14 17
4 4 7 9 10 6 17 23 21 22 20 19 22 20 32 35 43 40 39 44 44 43 39 33 31 27 28 25 21 19 19 15 18 18 17 17 17 16 16 16 15 17 23
5 2 1 4 6 7 7 21 21 25 21 24 27 24 30 36 38 43 47 44 44 44 43 37 35 30 26 26 22 20 20 19 23 22 23 24 24 22 21 21 21 23 22
6 4 3 1 3 5 5 3 13 21 26 27 23 22 26 26 27 43 45 39 47 48 45 43 44 32 31 33 25 21 22 24 25 27 27 29 29 29 30 27 24 28 22
7 7 6 4 3 4 6 5 2 11 24 23 28 19 21 21 22 36 44 43 47 46 49 40 36 32 35 35 29 27 25 29 32 33 32 32 31 31 34 35 32 28 23
10 7 7 4 4 4 5 6 6 7 9 17 23 29 25 24 31 35 32 47 49 39 39 40 33 27 29 29 31 33 33 32 33 34 34 33 29 23 25 32 32 29 31
16 10 5 2 3 3 4 4 6 7 9 12 15 18 22 24 30 34 36 31 31 32 37 35 33 33 35 35 35 36 36 35 37 36 38 42 33 29 25 25 25 30 29
17 15 10 6 4 4 5 5 6 7 8 9 9 11 13 14 18 21 25 26 27 27 29 33 33 36 36 35 35 36 38 37 39 34 32 24 22 29 29 30 30 35 31
19 17 15 10 8 7 7 6 6 6 8 10 10 10 11 11 12 15 17 20 23 25 28 29 30 31 34 36 36 39 39 39 38 32 29 29 29 27 29 33 31 33 35
15 17 14 14 11 10 9 9 10 10 10 11 12 12 12 12 13 15 15 18 20 23 26 29 30 33 36 37 40 42 40 40 40 36 34 32 30 30 30 33 36 34 36
8 14 18 18 17 16 14 12 12 13 14 15 15 16 16 16 17 17 19 21 21 23 26 29 31 34 37 40 41 42 43 39 40 39 39 36 33 33 35 37 38 39 37
6 10 15 21 20 20 20 20 19 16 15 16 17 20 22 22 23 22 24 23 29 29 28 29 34 36 39 41 47 45 50 38 43 37 42 38 26 34 39 41 38 40 44
11 10 12 13 13 14 15 19 22 22 23 22 20 20 21 29 29 28 29 34 31 35 36 38 39 39 42 46 43 42 36 36 40 43 46 30 36 40 42 39 39 38 45
15 14 16 17 17 16 17 18 19 18 19 18 19 21 24 25 30 35 35 36 31 34 37 38 40 42 48 35 37 36 40 43 36 38 39 36 34 38 36 40 43 45 41
18 17 15 17 19 17 17 16 14 15 15 12 10 7 13 20 25 31 34 36 40 36 34 34 39 39 33 29 30 34 35 39 41 43 39 38 38 39 39 42 41 43 49
23 26 24 23 20 22 19 20 21 19 16 17 17 14 15 14 21 25 27 32 36 43 46 43 36 34 34 35 37 37 38 36 37 37 39 40 41 42 41 44 43 40 46
23 25 31 32 28 26 23 24 23 25 24 21 21 20 21 21 19 21 25 27 29 31 34 37 36 35 32 33 37 35 36 34 36 37 40 42 42 43 39 39 44 49 55
24 28 29 30 34 33 33 29 29 29 26 26 27 25 25 24 28 25 26 27 29 30 31 33 35 37 36 36 37 37 38 38 37 40 45 43 42 38 42 49 51 52 51
19 23 27 29 29 33 32 32 29 32 32 30 29 29 27 29 30 31 29 29 31 31 33 34 35 37 36 36 38 38 40 39 41 44 45 40 40 44 50 53 52 49 50
28 20 25 26 23 32 33 33 33 31 31 33 33 31 31 35 33 37 33 34 35 34 34 35 36 36 37 39 40 41 42 42 44 46 40 42 46 50 51 50 50 52 52
30 25 28 29 33 25 34 34 35 36 35 35 34 33 33 37 34 39 36 37 37 37 36 36 36 37 39 42 44 45 43 46 43 41 43 45 47 48 48 49 51 52 52
23 24 31 27 33 32 28 37 34 35 31 30 33 35 37 38 36 37 38 37 38 39 39 39 39 40 37 35 35 36 47 41 38 41 43 45 46 47 49 50 51 52 52
26 25 26 25 27 31 35 35 30 31 36 33 33 33 35 34 35 37 39 35 34 35 36 35 33 31 33 39 41 36 37 40 41 43 44 47 48 50 52 55 53 51 51
29 34 35 31 29 28 25 26 28 31 32 32 33 35 33 35 34 33 31 30 27 28 25 29 31 35 38 32 39 40 40 42 44 47 47 49 52 53 54 52 50 49 48
14 13 23 27 26 25 24 28 23 24 25 26 26 28 33 32 31 30 28 26 23 24 29 36 36 32 31 32 38 39 42 44 46 47 47 47 46 45 44 44 44 46 46
24 20 19 17 22 22 24 23 27 32 35 39 25 26 26 27 25 23 22 21 24 28 31 35 36 36 37 37 38 39 40 40 40 39 40 41 43 45 45 46 45 44 44

GFSMW_700_spd_066.txt.gz
Wind_Speed
10 7 7 11 16 11 19 21 19 22 24 17 17 22 23 26 38 34 44 43 42 36 40 40 33 29 24 23 18 16 15 13 12 13 13 14 15 15 15 14 14 14 15
10 7 5 8 11 4 20 17 19 22 21 20 19 15 22 26 33 39 43 51 49 45 43 39 36 31 27 25 24 18 18 18 15 12 13 15 16 17 17 18 19 18 19
9 7 5 3 5 3 13 16 23 16 21 21 22 25 20 32 33 37 41 37 45 44 42 41 37 34 29 27 27 22 20 22 21 16 16 18 21 21 22 24 24 25 25
8 8 6 3 2 3 2 11 20 23 22 25 24 27 17 31 24 30 39 47 52 49 43 43 39 37 33 31 31 30 26 27 25 21 18 21 24 28 25 31 28 29 31
10 9 8 4 3 1 2 2 6 13 23 27 26 22 26 31 24 35 39 42 53 50 48 45 44 41 39 38 36 31 32 31 22 20 24 25 29 32 33 33 34 33 34
11 11 9 6 6 6 4 2 2 4 11 23 23 26 25 26 29 31 32 45 46 51 46 50 48 47 41 39 40 33 31 31 26 27 28 29 33 35 35 35 31 30 26
16 15 9 6 6 7 8 7 5 5 5 10 22 26 28 26 24 26 34 41 46 47 41 45 48 48 48 38 41 35 37 34 35 34 34 35 37 38 44 44 39 26 26
18 19 13 10 9 7 7 7 7 7 8 9 11 16 20 22 25 28 33 35 28 31 38 44 40 40 39 37 35 39 42 40 39 38 38 38 41 37 33 28 25 25 32
20 19 19 15 12 10 9 8 8 8 8 9 9 10 12 14 17 22 26 29 33 31 36 35 36 34 38 38 40 42 43 42 41 40 41 41 41 36 32 31 29 30 32
18 18 20 19 15 14 13 13 12 11 11 11 10 10 10 9 11 13 14 17 22 28 29 32 33 34 40 43 43 42 41 41 42 43 43 43 41 40 33 35 34 32 32
13 16 19 18 18 16 16 14 13 14 15 15 16 14 12 13 13 12 14 15 19 21 24 26 31 35 37 37 39 40 40 44 44 46 45 45 43 45 44 47 36 34 34
9 11 15 21 21 19 18 18 17 16 15 17 18 18 19 20 21 19 18 19 20 21 21 24 30 32 34 36 40 41 43 46 48 48 49 49 56 51 43 42 36 31 36
10 11 11 13 23 23 22 21 21 21 21 21 21 21 23 25 26 24 24 27 26 26 26 30 34 34 36 38 40 41 44 46 50 52 61 40 42 43 37 42 31 36 37
8 12 14 14 16 17 17 18 19 21 24 27 29 28 26 24 24 26 31 32 32 32 35 33 32 37 39 41 42 45 48 52 47 49 40 41 42 39 36 38 33 39 38
17 15 17 17 19 22 22 22 23 23 25 25 27 27 23 26 29 30 30 31 34 37 37 38 38 39 41 44 46 49 52 49 46 43 40 39 42 42 36 42 35 43 37
21 20 20 23 20 20 22 24 23 23 22 18 20 18 17 16 18 24 28 31 35 38 40 41 44 42 44 41 37 43 51 46 46 43 43 41 41 44 40 43 39 38 39
22 19 20 21 24 28 27 24 27 27 29 27 24 24 24 23 21 22 23 24 28 31 36 40 45 49 51 52 52 47 45 45 48 46 46 44 41 38 44 42 42 40 42
27 24 22 21 24 27 27 30 33 30 30 36 35 31 32 30 28 28 29 29 28 31 35 36 39 43 46 47 47 47 49 47 42 44 46 45 42 43 46 48 46 46 41
28 29 30 32 25 22 28 30 37 37 38 36 37 36 38 37 34 34 34 33 34 33 34 36 38 39 40 42 42 43 45 45 45 45 46 42 46 44 49 55 51 42 41
30 29 27 28 25 23 20 24 35 40 40 39 39 42 42 39 39 39 38 36 39 39 37 38 38 39 40 40 41 41 43 44 45 46 45 45 46 47 52 52 40 41 42
27 28 32 32 30 34 28 28 29 33 40 40 39 40 41 43 43 41 40 43 41 39 38 40 41 42 42 41 40 41 43 45 46 44 46 46 53 49 42 39 41 43 52
24 22 29 37 35 32 33 38 37 31 34 40 39 41 43 43 44 42 45 41 37 37 41 44 42 43 43 43 42 42 42 41 41 45 48 51 47 34 37 42 50 53 50
26 29 27 29 30 26 28 36 40 41 41 39 41 43 45 41 40 41 40 41 44 39 47 47 46 44 43 43 43 41 41 39 44 44 39 33 38 41 43 44 45 47 48
21 26 30 33 37 33 30 36 38 39 41 42 37 37 40 36 36 36 38 39 36 45 46 41 41 38 35 33 36 38 33 29 29 31 36 36 38 41 44 43 43 45 47
21 22 22 35 35 35 25 27 29 31 35 32 30 31 33 32 33 34 36 37 40 44 39 35 33 30 31 34 33 30 29 30 33 36 37 38 38 39 41 43 44 46 47
23 21 25 20 21 24 21 21 19 23 25 27 28 30 30 32 35 35 32 32 38 34 29 29 31 31 32 34 35 32 32 33 33 34 33 35 38 40 43 45 47 48 47

GFSMW_700_spd_069.txt.gz
Wind_Speed
13 14 13 15 16 19 12 25 20 19 13 11 14 17 18 21 38 39 34 41 44 36 38 43 40 33 29 26 20 17 16 18 17 16 14 13 13 15 16 17 16 16 17
13 13 12 12 12 12 10 18 17 16 18 16 14 16 17 15 30 34 32 37 40 44 46 43 39 42 32 26 25 22 21 20 17 14 13 14 14 13 15 17 18 18 20
13 12 11 10 8 7 7 17 16 19 17 16 18 17 18 21 28 37 31 41 45 46 43 45 42 35 33 29 28 28 25 23 21 18 17 15 12 13 17 18 21 23 25
11 12 10 8 7 3 1 10 14 20 20 20 20 19 16 20 21 30 36 37 47 49 51 43 42 40 38 37 34 32 29 25 23 25 23 19 17 11 12 22 24 27 29
16 12 10 7 5 5 1 3 10 18 22 23 21 22 24 21 21 29 38 37 42 45 44 45 50 47 44 41 36 34 34 31 27 29 25 25 23 22 22 24 29 35 34
18 15 11 8 6 6 5 3 4 8 15 20 21 23 25 23 22 30 32 34 41 44 50 51 50 48 44 45 39 40 40 32 34 30 29 28 26 24 26 28 29 32 36
19 17 14 9 7 7 7 5 3 3 4 10 20 26 26 27 29 27 27 34 33 45 52 52 52 50 46 41 44 43 41 31 35 34 33 31 33 30 30 33 35 41 44
20 18 16 13 10 9 8 8 7 5 3 4 7 15 23 30 27 24 25 33 32 36 47 49 54 52 49 48 42 47 39 36 43 42 39 36 38 36 36 36 39 39 30
19 20 17 17 14 11 9 9 9 8 7 5 7 10 13 18 21 24 28 29 29 29 39 42 44 45 41 41 45 44 43 42 42 41 41 41 41 40 41 41 41 41 40
17 18 18 19 17 15 13 13 12 11 11 9 9 9 10 12 13 15 14 16 26 32 33 32 34 34 38 40 38 40 42 41 41 44 42 43 43 43 44 44 43 42 45
11 16 17 19 20 18 17 14 14 14 13 13 12 11 12 13 14 13 14 14 17 21 24 27 29 34 36 37 40 41 39 39 42 44 46 45 43 47 48 48 47 46 41
5 11 15 16 19 21 20 16 15 15 15 15 16 16 16 16 15 14 15 17 17 18 20 22 23 25 27 32 36 37 38 38 39 41 45 47 45 50 51 55 51 52 55
4 7 12 15 18 22 24 21 19 19 20 19 18 20 21 22 21 20 20 21 21 23 24 24 25 26 27 31 34 36 37 38 40 43 46 46 46 52 49 54 51 51 53
4 5 9 12 16 17 25 26 24 23 24 24 24 24 24 23 23 25 27 27 26 28 28 29 29 29 28 29 36 37 39 41 44 44 46 48 49 52 51 48 48 43 38
10 9 12 13 13 15 19 22 21 21 22 23 25 27 29 30 30 29 28 27 30 33 33 34 36 36 39 37 38 40 42 45 45 49 54 51 51 52 47 51 44 43 48
12 12 9 14 18 19 18 17 24 28 27 27 23 23 25 29 32 28 29 30 31 32 34 36 37 40 42 42 43 44 46 46 49 52 44 50 50 54 53 50 49 49 47
25 19 15 16 20 17 20 23 24 23 26 28 27 27 25 26 27 25 24 23 24 26 27 30 35 37 41 43 45 46 49 51 51 52 53 57 47 48 55 46 51 50 47
26 24 22 21 21 20 19 22 26 31 30 30 32 33 32 31 32 31 30 29 29 30 29 29 30 32 36 39 41 44 50 53 56 59 58 56 54 52 49 48 50 54 49
22 30 30 28 26 26 27 24 26 29 32 34 30 33 39 39 40 40 39 37 38 37 37 36 35 35 34 36 38 40 42 44 46 48 49 49 50 52 52 49 52 54 56
18 22 27 38 32 28 29 28 25 23 22 23 30 39 41 43 50 49 47 45 46 44 45 45 42 40 37 38 38 40 43 44 45 47 49 49 49 50 49 48 51 55 51
22 19 24 29 38 35 35 38 37 34 32 28 28 33 41 46 45 48 51 50 52 52 51 48 48 42 39 41 40 42 44 47 48 48 49 49 49 51 50 52 52 52 57
28 27 27 26 29 36 37 39 39 39 43 45 45 39 36 42 43 42 46 49 50 49 52 52 43 41 40 47 45 44 46 48 49 49 49 48 48 50 52 54 45 38 37
29 31 33 32 33 31 30 31 32 33 38 40 40 41 40 39 36 39 42 48 46 49 47 41 45 45 45 50 45 46 48 47 47 46 47 45 46 50 47 37 33 35 38
25 29 27 26 27 26 32 36 36 34 32 36 37 38 40 39 39 41 46 48 45 43 42 48 47 46 45 45 46 49 45 41 39 41 39 35 31 29 31 35 36 36 37
30 30 29 27 27 28 28 27 30 29 27 29 28 33 36 37 36 34 34 41 44 46 43 41 45 44 43 47 49 44 39 37 34 33 32 33 32 32 33 35 37 38 39
23 23 26 28 26 28 26 28 24 25 24 26 23 19 22 26 28 30 30 30 34 38 41 41 42 44 41 42 44 42 34 30 29 28 28 30 31 32 33 35 37 39 42

GFSMW_700_spd_072.txt.gz
Wind_Speed
17 17 16 16 14 19 23 10 17 10 4 4 12 12 22 19 23 25 26 27 36 37 47 33 36 35 34 30 26 25 23 18 18 17 14 15 16 17 18 17 17 17 17
20 14 13 15 13 16 14 10 19 12 11 7 10 14 13 14 15 21 30 30 37 35 40 39 37 34 31 30 30 29 23 18 16 15 14 16 17 16 15 16 16 17 17
23 19 13 12 11 9 8 5 12 13 11 12 12 13 14 14 20 27 28 30 29 33 47 42 37 40 35 33 35 37 31 21 20 20 23 23 16 15 18 16 16 19 21
22 22 14 10 10 7 4 3 10 12 16 15 11 13 13 14 16 19 24 32 28 36 49 51 45 47 38 41 39 38 28 26 26 26 25 21 21 20 18 19 16 19 21
26 24 15 10 8 7 3 1 5 11 17 16 15 15 14 12 17 18 25 33 29 26 42 45 42 41 42 44 42 38 35 31 29 31 31 28 24 24 23 20 21 24 25
25 24 17 12 8 6 5 3 2 5 11 19 17 21 18 20 20 19 22 30 30 34 38 37 42 45 48 44 44 42 29 31 33 30 28 29 27 27 27 25 25 27 28
21 25 18 13 10 5 6 5 4 2 5 11 16 20 20 22 23 16 20 24 29 35 34 39 44 49 50 48 45 40 38 42 40 38 33 29 31 30 30 30 29 30 32
19 26 18 13 12 7 6 6 5 4 2 3 8 16 24 25 22 24 20 21 26 25 23 35 40 48 52 48 49 50 48 46 45 41 34 30 31 35 35 35 35 36 37
18 22 21 14 15 10 6 6 6 5 4 2 3 8 16 23 23 24 24 26 27 25 33 29 36 47 46 48 50 47 47 49 42 36 37 35 37 42 43 41 39 40 43
17 21 20 16 17 13 10 8 7 6 6 5 4 4 5 9 16 24 22 23 24 24 30 32 35 40 43 50 52 49 48 47 47 47 41 43 44 42 41 42 41 43 46
13 20 19 16 17 17 15 13 11 9 8 7 7 7 5 6 8 10 15 18 20 25 29 30 30 35 39 40 46 49 48 44 41 43 45 46 42 41 44 44 44 43 48
10 17 17 17 13 18 18 15 15 12 10 8 9 10 11 10 9 8 9 12 13 16 19 24 28 30 30 34 38 41 42 44 46 45 46 41 41 44 45 43 44 47 49
6 6 13 15 16 16 18 19 18 17 16 15 14 13 14 14 14 14 15 15 15 16 18 20 19 21 23 27 30 32 34 37 37 38 40 40 42 44 44 43 43 47 51
4 2 6 10 15 15 15 21 23 22 21 20 20 20 19 18 18 19 21 22 21 22 22 22 24 25 26 27 28 30 30 32 34 36 38 39 41 42 43 43 44 47 51
3 3 6 7 12 15 14 14 19 25 25 23 21 21 20 22 25 26 25 25 26 26 26 27 28 28 30 31 32 33 33 33 34 36 39 41 43 44 48 45 46 51 55
10 6 13 8 5 11 20 19 16 16 23 24 24 24 24 23 24 27 30 31 31 30 30 30 30 31 32 32 33 36 38 38 40 42 43 45 47 47 47 50 51 47 57
22 15 15 15 16 19 12 16 22 26 21 20 24 27 29 28 26 25 28 30 31 30 30 29 30 29 30 30 34 35 39 41 43 45 47 50 52 53 52 53 53 54 57
17 27 25 22 22 19 22 25 27 25 25 24 25 26 29 32 33 33 31 30 31 31 29 29 30 31 29 29 28 31 37 40 42 45 49 51 52 52 52 53 53 53 54
14 11 15 21 24 22 22 19 18 17 25 23 27 29 28 31 34 36 33 37 39 38 37 37 38 39 36 37 36 36 35 37 39 40 42 45 46 47 45 44 49 51 54
17 20 16 13 16 27 27 28 27 25 23 21 23 27 29 30 32 38 40 42 46 46 47 47 48 46 46 45 43 41 41 41 42 42 43 43 44 45 47 48 51 52 52
17 19 24 21 20 18 19 22 32 36 38 39 37 32 32 31 34 31 32 46 50 58 52 57 56 53 51 52 49 48 44 44 46 44 46 45 47 49 50 51 53 50 55
24 22 24 23 23 25 27 26 24 24 27 32 40 41 37 44 47 40 43 44 43 47 51 49 50 45 52 57 54 46 45 51 48 48 47 49 48 49 51 52 52 55 56
22 20 21 20 22 23 23 26 28 30 32 31 28 28 33 37 41 49 48 44 43 43 43 42 46 47 50 52 54 54 50 58 54 50 42 42 45 50 51 51 46 50 46
22 23 24 25 27 26 26 26 26 28 29 29 32 35 35 30 30 35 40 42 42 44 45 45 47 51 57 63 68 54 52 48 43 44 47 48 50 51 53 42 37 35 31
22 23 25 27 27 27 27 28 28 27 27 27 26 27 31 30 31 28 33 38 41 45 46 48 49 53 49 45 42 40 45 43 43 45 46 43 38 42 30 24 23 24 28
24 25 26 25 26 28 30 32 33 32 30 28 27 29 29 24 22 27 31 37 45 42 36 43 51 48 36 40 35 35 39 41 38 23 20 18 17 19 22 26 29 30 32

GFSMW_700_spd_075.txt.gz
Wind_Speed
27 25 22 13 13 16 18 20 8 11 7 4 14 19 24 23 27 31 35 34 27 23 27 30 35 42 37 34 32 30 29 27 25 21 20 18 17 17 17 18 18 18 17
28 27 21 15 13 13 14 14 12 15 6 2 11 16 21 27 32 32 27 26 26 26 32 31 37 41 42 42 34 32 31 28 21 17 15 16 17 18 20 19 19 17 18
26 24 20 16 13 12 10 6 9 10 10 8 6 16 24 24 32 32 33 34 29 29 32 33 36 40 33 42 33 31 30 26 23 32 25 27 22 18 18 18 19 19 19
23 22 19 16 12 11 6 4 7 9 8 11 9 9 10 17 26 29 27 26 28 35 31 36 44 38 37 39 25 30 30 32 36 32 27 22 21 24 22 21 23 23 21
26 24 23 19 13 11 6 3 5 6 8 11 14 11 12 10 17 21 22 26 24 28 26 27 43 40 39 35 34 34 35 36 37 33 30 29 27 25 28 25 22 25 20
25 24 22 22 14 8 6 3 2 5 6 8 13 11 13 12 11 20 24 25 25 29 28 29 43 47 47 44 38 37 37 39 37 37 37 31 29 28 29 25 23 23 27
27 22 18 18 13 7 4 3 2 2 3 4 8 15 15 14 13 15 13 19 25 25 26 27 32 45 47 44 41 40 40 40 43 44 35 28 25 30 34 33 31 29 29
22 18 17 12 14 9 3 2 2 1 1 3 3 8 12 16 17 17 14 14 18 23 21 24 22 31 39 41 44 43 43 48 43 40 34 31 32 32 33 32 30 32 35
19 14 16 11 12 11 5 3 2 1 0 2 3 3 3 6 15 18 21 17 15 20 20 24 20 23 37 44 45 45 48 47 47 40 35 38 42 37 34 33 33 37 43
17 14 15 11 11 13 10 7 4 5 4 2 1 2 1 2 5 13 16 16 17 18 23 24 34 27 26 35 45 46 49 46 51 49 46 47 45 41 37 38 39 42 45
15 14 14 11 12 13 12 9 7 5 6 4 3 1 1 1 1 2 7 9 11 14 18 24 24 25 33 38 46 50 48 47 50 53 50 47 48 47 45 41 40 43 43
12 15 15 13 10 11 13 12 10 8 6 7 6 4 3 2 2 2 3 5 6 9 12 16 19 24 27 29 36 37 44 44 47 49 51 47 47 47 43 41 42 44 42
7 13 13 13 10 10 11 15 15 12 11 10 11 10 8 6 6 7 8 8 8 9 11 12 13 16 19 25 26 30 35 35 36 39 42 40 43 42 39 38 39 39 40
12 11 8 4 6 8 9 9 14 18 18 16 14 14 14 13 13 14 14 14 14 16 15 16 17 18 20 21 23 24 26 26 26 29 34 34 36 35 34 37 38 41 43
13 18 13 12 19 10 9 6 6 8 18 22 20 17 17 19 21 21 20 21 22 23 23 23 24 24 25 25 25 26 28 31 31 32 32 33 35 37 37 39 42 45 47
12 14 13 8 4 15 23 18 15 11 10 10 19 23 22 20 22 25 27 27 28 28 29 29 28 28 29 28 28 30 32 34 35 36 37 39 40 41 41 43 45 47 49
12 10 12 17 12 10 8 17 22 24 21 17 14 14 17 22 28 28 27 26 28 31 32 34 34 33 31 30 32 34 37 38 38 39 40 41 41 41 43 44 47 50 53
16 16 20 20 20 20 18 19 21 23 23 24 27 28 27 23 23 27 30 31 32 32 32 32 35 37 33 36 36 36 39 40 40 42 42 44 43 44 46 48 50 53 55
12 8 9 22 28 22 23 23 18 18 25 27 28 31 31 30 29 31 31 30 34 36 34 32 38 41 40 43 40 42 44 46 47 46 45 46 46 45 47 50 53 53 53
10 11 7 11 12 19 23 26 27 22 22 24 26 26 26 25 27 30 32 36 35 34 35 38 42 45 44 46 47 48 50 51 51 52 53 53 52 53 53 51 48 45 48
20 19 14 13 14 16 18 18 20 30 35 34 30 30 34 34 36 35 37 37 37 34 32 36 39 48 51 53 55 55 53 53 54 55 57 58 58 54 53 50 52 49 62
19 21 17 14 13 12 12 12 14 17 20 25 27 28 28 31 36 39 41 41 42 44 46 46 52 44 46 45 45 48 49 49 51 52 56 61 66 59 56 57 59 67 56
17 20 17 17 17 18 19 19 17 16 17 18 20 23 29 33 34 33 39 49 48 47 48 50 50 50 49 50 54 51 47 47 46 53 60 60 70 67 70 60 57 55 51
16 17 17 18 21 23 24 24 24 25 24 23 24 25 26 27 28 30 33 34 34 38 41 44 49 48 51 53 58 67 48 59 53 56 64 66 54 49 43 36 44 40 34
16 17 19 20 20 21 23 24 26 27 28 29 29 29 29 28 28 30 32 33 34 36 37 39 43 50 51 53 59 63 55 57 54 48 45 36 34 30 30 23 15 13 14
18 19 20 22 23 24 26 28 29 32 33 34 35 34 34 34 29 28 27 28 31 35 34 36 31 28 31 39 31 26 26 27 23 22 19 13 11 11 12 13 15 18 21